Location: Shepherdstown, WV
(39.4326°N, 77.8042°W)
Time: 05:56:23
(UTC-04:00)

Vanguard 3 - Pass Details

Date: 09 August 2021
Orbit: 510 x 3260 km, 33.3° (Epoch: 21 September)

Event Time Altitude Azimuth Distance (km) Brightness Sun altitude
Rises 14:49:19 0° 206° (SSW) 3,639 10.9 58.7°
Reaches altitude 10° 14:51:58 10° 193° (SSW) 2,997 10.6 58.4°
Maximum altitude 14:58:08 27° 139° (SE) 2,653 10.1 57.5°
Drops below altitude 10° 15:07:32 10° 89° (E) 4,727 10.9 56.0°
Sets 15:13:01 0° 80° (E) 6,226 11.3 55.2°
